Погода в Коммунарке

Россия / Московская область     55°34′13″N   37°28′31″E
темп.,
°C
ветер,
м/с
пор.,
м/с
влажн.,
%
обл.,
%
осадки,
мм/ч
давл.,
гПа
погр.,
м
20 апреля, вт
вт2000:00+5в51071100 0.0 1023954
03:00+2всв51195100 0.4 1022522
06:00+3в61168100 0.1 1021646
09:00+4в61070100 0.1 1021680
12:00+3в61195100 0.5 1021642
15:00+2всв51298100 2.8 1019574
18:00+2в61396100 1.3 1017682
21:00+2всв51397100 2.3 1015577
21 апреля, ср
ср2100:00+2всв51397100 2.4 1010727
03:00+2св61597100 8.8 1005761
06:00+1св613100100 7.8 1001649
09:00+2с47100100 13.2 998291
12:00+1зюз61199100 2.4 1001452
15:00+2юз61199100 2.5 1005765
18:00+3юз51198100 0.0 1008780
21:00+2ю499717 0.1 1011234
22 апреля, чт
чт2200:00+2ю499797 0.0 1012201
03:00+3ююз41097100 0.1 1013248
06:00+1ююз3996100 0.0 1014195
09:00+5ююз588657 0.0 1015328
12:00+10ююз6872100 0.0 10151076
15:00+11ююз586472 0.2 10151314
18:00+11ю487149 0.1 1016696
21:00+8ю39885 0.1 1016162
23 апреля, пт
пт2300:00+7ю310915 0.1 1016177
03:00+5ююз37936 0.1 1017126
06:00+6ю399332 0.0 1017168
09:00+11ююз5107358 0.0 1017486
12:00+15ю7115926 0.0 10161212
15:00+17ю7105016 0.1 10151720
18:00+15ю611605 0.1 10141177
21:00+11ю5157326 0.1 1013569
24 апреля, сб
сб2400:00+10ю71671100 0.0 1012736
03:00+8ю61483100 0.0 1011693
06:00+6зсз5689100 0.8 1011592
09:00+4зюз3495100 3.6 1012475
12:00+5ююз4584100 1.2 1012653
15:00+8ююз466361 1.4 10111328
18:00+7зюз5872100 1.1 10111111
21:00+3юз498279 1.3 1011393